Regional Weather Roundup
Issued by NWS Northern Indiana

Home | Current Version | Previous Version | Graphics & Text | Print | Product List | Glossary On
Versions: 1 2 3 4 5 6 7 8 9 10 11 12 13 14 15 16 17 18 19 20 21 22 23 24 25 26 27 28 29 30 31 32 33 34 35 36 37 38 39 40 41 42 43 44 45 46 47 48 49 50
000
ASUS43 KIWX 232200
RWRIWX

KIWX WEATHER ROUNDUP
NATIONAL WEATHER SERVICE NORTHERN INDIANA
600 PM EDT WED JUL 23 2014

NOTE: "FAIR" INDICATES FEW OR NO CLOUDS BELOW 12,000 FEET WITH NO
SIGNIFICANT WEATHER AND/OR OBSTRUCTIONS TO VISIBILITY.

* THESE STATIONS ARE NOT UNDER NWS QUALITY CONTROL. THEY ALSO MAY NOT
  REPORT WEATHER SUCH AS PRECIPITATION OR FOG.

INZ001>027-232300-
NORTHERN INDIANA

CITY           SKY/WX    TMP DP  RH WIND       PRES   REMARKS
GARY*          SUNNY     70  52  52 N15       30.13F
VALPARAISO     SUNNY     66  51  58 N14G25    30.11F
KNOX*          MOSUNNY   69  57  67 N16       30.08F
SOUTH BEND     MOSUNNY   71  57  61 N16       30.09S
ELKHART*       MOSUNNY   72  59  64 NW8       30.07F
GOSHEN         PTSUNNY   74  56  53 N13       30.05F
MONTICELLO*    SUNNY     72  59  62 N20       30.05F
WARSAW*        PTSUNNY   73  59  60 N3        30.05F
ANGOLA*        PTSUNNY   75  68  78 N9        30.05S
FORT WAYNE     PTSUNNY   76  61  59 N10       30.03F
PERU/GRISSOM   CLOUDY    74  63  67 N13       30.03F

$$
INZ028>050-232300-
CENTRAL INDIANA

CITY           SKY/WX    TMP DP  RH WIND       PRES   REMARKS
LAFAYETTE      SUNNY     74  56  53 N17G25    30.05F
KOKOMO*        PTSUNNY   75  63  64 N12       30.03F
MUNCIE*        CLOUDY    71  64  78 N10       30.03S
INDIANAPOLIS   CLOUDY    73  67  81 N9        30.01F

$$
MIZ043>046-050>051-056>058-064>065-071>073-077>080-232300-
SOUTHWEST LOWER MICHIGAN

CITY           SKY/WX    TMP DP  RH WIND       PRES   REMARKS
BATTLE CREEK   MOSUNNY   74  55  51 N10       30.07F
BENTON HARBOR  SUNNY     65  54  67 VRB7G22   30.11S
COLDWATER*     MOSUNNY   75  55  49 N9        30.05F
HILLSDALE*     MOSUNNY   73  57  57 NE7       30.05F
HOLLAND        SUNNY     70  58  65 NW12      30.10S
GRAND RAPIDS   PTSUNNY   76  55  48 N8        30.08S
KALAMAZOO      MOSUNNY   77  55  46 N9        30.06F
STURGIS*       MOSUNNY   72  57  60 N8        30.05F
THREE RIVERS*  FAIR      74  60  60 N7        30.06F

$$
OHZ001>008-015>018-024>025-232300-
NORTHWEST OHIO

CITY           SKY/WX    TMP DP  RH WIND       PRES   REMARKS
DEFIANCE       CLOUDY    77  60  55 N10       30.03S
FINDLAY        CLOUDY    71  63  75 NE8       30.02R
TOLEDO EXPRESS CLOUDY    73  58  59 NE9       30.03S
TOLEDO METCALF CLOUDY    70  60  70 E6        30.04R
LIMA           CLOUDY    71  64  78 N12       30.03R

$$
&&


USA.gov is the U.S. government's official web portal to all federal, state and local government web resources and services.